Location: Ferchesar
(52.6477°N, 12.4298°E)
Time: 02:56:15
(UTC+01:00)

Transit 2A - Pass Details

Date: 09 December 2021
Orbit: 591 x 967 km, 66.7° (Epoch: 17 January)

Event Time Altitude Azimuth Distance (km) Brightness Sun altitude
Exits shadow 05:32:35 21° 337° (NNW) 2,050 7.9 -22.4°
Maximum altitude 05:36:13 36° 30° (NNE) 1,491 7.6 -21.9°
Drops below altitude 10° 05:41:59 10° 96° (E) 2,673 10.0 -21.0°
Sets 05:44:43 0° 105° (ESE) 3,583 11.1 -20.6°
